Regional Weather Roundup
Issued by NWS Cleveland, OH

Home | Current Version | Previous Version | Text Only | Print | Product List | Glossary On
Versions: 1 2 3 4 5 6 7 8 9 10 11 12 13 14 15 16 17 18 19 20 21 22 23 24 25 26 27 28 29 30 31 32 33 34 35 36 37 38 39 40 41 42 43 44 45 46 47 48 49 50
000
ASUS41 KCLE 290010
RWRCLE
OHIO REGIONAL WEATHER ROUNDUP
NATIONAL WEATHER SERVICE CLEVELAND, OH
800 PM EDT FRI AUG 28 2015

NOTE: "FAIR" INDICATES FEW OR NO CLOUDS BELOW 12,000 FEET WITH NO
SIGNIFICANT WEATHER AND/OR OBSTRUCTIONS TO VISIBILITY.

OHZ001>008-015>018-024>027-034-035-043-044-290100-
   NORTHWEST OHIO

CITY           SKY/WX    TMP DP  RH WIND       PRES   REMARKS
DEFIANCE       CLOUDY    75  58  55 CALM      30.12S
FINDLAY        MOCLDY    73  60  63 SE3       30.11F
TOLEDO EXPRESS MOCLDY    67  62  84 CALM      30.12F
TOLEDO EXEC    MOCLDY    72  58  61 E5        30.13S
LIMA           MOCLDY    70  60  70 SE3       30.12F
$$

OHZ009>014-019>023-028>033-038-089-290100-
   NORTHEAST OHIO

CITY           SKY/WX    TMP DP  RH WIND       PRES   REMARKS
CLE-HOPKINS    CLOUDY    69  58  67 NE7       30.17F
CLE-LAKEFRONT  MOCLDY    69  59  70 NE7       30.14F
CUY CO. ARPT   MOCLDY    68  59  73 NE9       30.16F
LORAIN-ELYRIA  MOCLDY    67  58  72 E5        30.15F
ASHTABULA      PTCLDY    64  59  83 E3        30.18S
AKRON-CANTON   MOCLDY    72  53  51 CALM      30.15S
WOOSTER        PTCLDY    67  55  65 S3        30.16S
MANSFIELD      CLOUDY    72  57  59 CALM      30.15F
YOUNGSTOWN     CLOUDY    68  59  73 E6        30.16S
$$

OHZ042-051>053-060>062-070>072-077>081-290100-
  SOUTHWEST OHIO

CITY           SKY/WX    TMP DP  RH WIND       PRES   REMARKS
CINC-COVINGTON PTCLDY    75  57  53 E5        30.11F
CINC-LUNKEN    PTCLDY    70  65  84 E3        30.11S
HAMILTON       PTCLDY    71  60  68 E6        30.11F
DAYTON         MOCLDY    71  57  61 E7        30.13F
WRIGHT-PAT AFB MOCLDY    73  58  58 E3        30.12F
DAYTON GENERAL PTCLDY    70  57  63 E3        30.12F
WILMINGTON     MOCLDY    70  59  68 E5        30.13F
$$

OHZ036-037-039>041-045>050-054>059-063>069-073>076-082>088-290100-
  CENTRAL AND SOUTHEAST OHIO

CITY           SKY/WX    TMP DP  RH WIND       PRES   REMARKS
COLUMBUS       CLOUDY    74  55  51 S6        30.13F
OSU AIRPORT    CLOUDY    74  56  53 SW3       30.13F
BOLTON FIELD   MOCLDY    70  62  74 S3        30.14F
RICKENBACK AFB MOCLDY    73  57  57 CALM      30.13F
NEWARK         CLEAR     70  59  68 CALM      30.13F
MARION         MOCLDY    70  57  63 S3        30.14F
LANCASTER      MOCLDY    68  62  81 CALM      30.14S
ZANESVILLE     MOCLDY    74  54  49 CALM      30.14R
NEW PHILLY     PTCLDY    68  57  68 CALM      30.15S
$$


USA.gov is the U.S. government's official web portal to all federal, state and local government web resources and services.